Weather History for PAGY - November, 2013

Change the Weather History Date:

Thursday, November 28, 2013

  Actual Average (WUND) Record (WUND)
Temperature  
Mean Temperature 38 °F -  
Max Temperature 43 °F - - (-1)
Min Temperature 33 °F - - (-1)
Degree Days  
Heating Degree Days 27    
Moisture  
Dew Point 33 °F    
Average Humidity 76    
Maximum Humidity 92    
Minimum Humidity 60    
Precipitation  
Precipitation 0.03 in - - ()
Sea Level Pressure  
Sea Level Pressure 29.58 in    
Wind  
Wind Speed 16 mph (SSW)    
Max Wind Speed 39 mph    
Max Gust Speed 53 mph    
Visibility 10 miles    
Events Rain    
Averages and records for this station are not official NWS values.
T = Trace of Precipitation, MM = Missing Value Source: NWS Daily Summary

Daily Weather History Graph

Daily Weather History Graph

Search for Another Location

Airport or City:

Trip Planner

Search our weather history database for the weather conditions in past years. The results will help you decide how hot, cold, wet, or windy it might be!

Date:

Astronomy

Nov. 28, 2013 Rise Set
Actual Time 8:26 AM AKST 3:11 PM AKST
Civil Twilight 7:34 AM AKST 4:03 PM AKST
Nautical Twilight 6:41 AM AKST 4:56 PM AKST
Astronomical Twilight 5:51 AM AKST 5:46 PM AKST
Moon 2:31 AM AKST (11/28) 1:25 PM AKST (11/28)
Length of Visible Light 8h 28m
Length of Day
6h 44m
Waning Crescent, 21% of the Moon is Illuminated
Nov 28
Waning Crescent
Dec 2
New
Dec 9
First Quarter
Dec 17
Full
Dec 25
Last Quarter

Hourly Weather History & Observations

Time (AKST) Temp. Windchill Dew Point Humidity Pressure Visibility Wind Dir Wind Speed Gust Speed Precip Events Conditions
12:01 AM 33.8 °F 30.8 °F 30.2 °F 87% 29.45 in 3.0 mi NE 3.5 mph - 0.00 in   Overcast
12:16 AM 33.8 °F - 30.2 °F 87% 29.45 in 5.0 mi Calm Calm - 0.00 in   Overcast
12:35 AM 33.8 °F - 30.2 °F 87% 29.45 in 9.0 mi Calm Calm - 0.00 in   Overcast
12:53 AM 34.0 °F - 32.0 °F 92% 29.45 in 8.0 mi Calm Calm - 0.00 in Rain Light Rain
1:53 AM 34.0 °F 29.8 °F 30.9 °F 89% 29.44 in 9.0 mi Variable 4.6 mph - 0.03 in   Overcast
2:00 AM 35.6 °F 29.9 °F 32.0 °F 87% 29.45 in 10.0 mi NNE 6.9 mph - 0.00 in   Overcast
2:07 AM 35.6 °F 29.9 °F 32.0 °F 87% 29.45 in 10.0 mi Variable 6.9 mph 16.1 mph 0.00 in   Overcast
2:26 AM 41.0 °F 33.5 °F 35.6 °F 81% 29.45 in 10.0 mi SSW 13.8 mph 19.6 mph 0.00 in Rain Light Rain
2:43 AM 42.8 °F 33.8 °F 37.4 °F 81% 29.45 in 10.0 mi SSW 21.9 mph 35.7 mph 0.01 in   Overcast
2:51 AM 42.8 °F 34.0 °F 37.4 °F 81% 29.45 in 10.0 mi SSW 20.7 mph 33.4 mph 0.01 in Rain Light Rain
3:53 AM 42.1 °F 30.8 °F 37.0 °F 82% 29.48 in 10.0 mi SSW 33.4 mph 40.3 mph 0.00 in Rain Light Rain
4:53 AM 42.1 °F 31.5 °F 36.0 °F 79% 29.52 in 10.0 mi SSW 28.8 mph 40.3 mph 0.00 in   Overcast
5:53 AM 42.1 °F 32.6 °F 36.0 °F 79% 29.53 in 10.0 mi SSW 23.0 mph 34.5 mph N/A   Mostly Cloudy
6:53 AM 42.1 °F 32.6 °F 35.1 °F 76% 29.57 in 10.0 mi SSW 23.0 mph 36.8 mph N/A   Overcast
7:53 AM 42.1 °F 33.9 °F 36.0 °F 79% 29.60 in 10.0 mi SSW 17.3 mph 31.1 mph N/A   Overcast
8:53 AM 43.0 °F 33.3 °F 35.1 °F 74% 29.62 in 10.0 mi SSW 25.3 mph 40.3 mph N/A   Overcast
9:53 AM 43.0 °F 33.3 °F 34.0 °F 71% 29.64 in 10.0 mi SSW 25.3 mph 40.3 mph N/A   Overcast
10:53 AM 42.1 °F 31.0 °F 34.0 °F 73% 29.66 in 10.0 mi SSW 32.2 mph 46.0 mph N/A   Mostly Cloudy
11:53 AM 42.1 °F 31.3 °F 33.1 °F 70% 29.67 in 10.0 mi SW 29.9 mph 44.9 mph N/A   Overcast
12:53 PM 42.1 °F 31.1 °F 33.1 °F 70% 29.70 in 10.0 mi SW 31.1 mph 43.7 mph N/A   Overcast
1:53 PM 42.1 °F 31.0 °F 30.9 °F 65% 29.70 in 10.0 mi SSW 32.2 mph 43.7 mph N/A   Mostly Cloudy
2:53 PM 41.0 °F 29.8 °F 28.9 °F 62% 29.74 in 10.0 mi SW 29.9 mph 40.3 mph N/A   Overcast
3:53 PM 41.0 °F 29.7 °F 30.0 °F 65% 29.73 in 10.0 mi SSW 31.1 mph 43.7 mph N/A   Overcast
4:53 PM 41.0 °F 29.8 °F 30.0 °F 65% 29.73 in 10.0 mi SW 29.9 mph 38.0 mph N/A   Overcast
5:53 PM 41.0 °F 29.7 °F 30.9 °F 67% 29.70 in 10.0 mi SSW 31.1 mph 43.7 mph N/A   Overcast
6:53 PM 41.0 °F 29.1 °F 30.9 °F 67% 29.69 in 10.0 mi SSW 34.5 mph 40.3 mph N/A   Overcast
7:53 PM 42.1 °F 31.5 °F 28.9 °F 60% 29.68 in 10.0 mi SW 28.8 mph 36.8 mph N/A   Overcast
8:53 PM 41.0 °F 29.1 °F 30.9 °F 67% 29.67 in 10.0 mi SSW 34.5 mph 44.9 mph N/A   Overcast
9:53 PM 41.0 °F 29.7 °F 32.0 °F 70% 29.64 in 10.0 mi SSW 31.1 mph 40.3 mph N/A   Overcast
10:53 PM 41.0 °F 28.5 °F 33.1 °F 73% 29.59 in 10.0 mi SSW 39.1 mph 52.9 mph N/A   Overcast
11:53 PM 41.0 °F 29.0 °F 34.0 °F 76% 29.59 in 10.0 mi SSW 35.7 mph 49.5 mph N/A   Overcast